| time (UTC) | temp C | wind direction | speed KPH | gust KPH | rain 1hr cm | rain 24hr cm | rain mn cm | humidity % | barometer mb |
| 20260509225031 | 8 | 239 | 0.0 | 0.0 | 0.00 | 0.00 | 0.00 | 78 | 1018.4 |
| 20260509224531 | 8 | 239 | 0.0 | 0.0 | 0.00 | 0.00 | 0.00 | 78 | 1018.4 |
| 20260509224030 | 8 | 239 | 0.0 | 0.0 | 0.00 | 0.00 | 0.00 | 78 | 1018.4 |
| 20260509223031 | 8 | 240 | 0.0 | 0.0 | 0.00 | 0.00 | 0.00 | 76 | 1018.4 |
| 20260509222035 | 8 | 240 | 0.0 | 0.0 | 0.00 | 0.00 | 0.00 | 76 | 1018.6 |
| 20260509221530 | 9 | 240 | 0.0 | 0.0 | 0.00 | 0.00 | 0.00 | 75 | 1018.3 |
| 20260509221031 | 9 | 240 | 0.0 | 0.0 | 0.00 | 0.00 | 0.00 | 74 | 1018.6 |
| 20260509220530 | 9 | 240 | 0.0 | 0.0 | 0.00 | 0.00 | 0.00 | 74 | 1018.4 |
| 20260509220031 | 9 | 240 | 0.0 | 0.0 | 0.00 | 0.00 | 0.00 | 74 | 1018.6 |
| 20260509215530 | 9 | 240 | 0.0 | 0.0 | 0.00 | 0.00 | 0.00 | 73 | 1018.5 |
| 20260509215030 | 10 | 240 | 0.0 | 0.0 | 0.00 | 0.00 | 0.00 | 73 | 1018.4 |
| 20260509214531 | 10 | 240 | 0.0 | 0.0 | 0.00 | 0.00 | 0.00 | 72 | 1018.3 |
| 20260509214029 | 10 | 240 | 0.0 | 0.0 | 0.00 | 0.00 | 0.00 | 72 | 1018.6 |
| 20260509213030 | 10 | 240 | 0.0 | 0.0 | 0.00 | 0.00 | 0.00 | 71 | 1018.3 |
| 20260509212543 | 10 | 240 | 0.0 | 0.0 | 0.00 | 0.00 | 0.00 | 72 | 1018.3 |
| 20260509211529 | 10 | 240 | 0.0 | 0.0 | 0.00 | 0.00 | 0.00 | 70 | 1018.4 |
| 20260509211030 | 10 | 240 | 0.0 | 0.0 | 0.00 | 0.00 | 0.00 | 70 | 1018.3 |
| 20260509210530 | 10 | 240 | 0.0 | 0.0 | 0.00 | 0.00 | 0.00 | 71 | 1018.4 |
| 20260509210032 | 10 | 240 | 0.0 | 0.0 | 0.00 | 0.00 | 0.00 | 71 | 1018.5 |
| 20260509205530 | 10 | 240 | 0.0 | 0.0 | 0.00 | 0.00 | 0.00 | 69 | 1018.6 |
| 20260509205030 | 10 | 240 | 0.0 | 0.0 | 0.00 | 0.00 | 0.00 | 69 | 1018.3 |
| 20260509204530 | 10 | 240 | 0.0 | 0.0 | 0.00 | 0.00 | 0.00 | 69 | 1018.5 |
| 20260509204030 | 10 | 240 | 0.0 | 0.0 | 0.00 | 0.00 | 0.00 | 69 | 1018.1 |
| 20260509203030 | 11 | 240 | 0.0 | 0.0 | 0.00 | 0.00 | 0.00 | 68 | 1018.2 |
| 20260509202531 | 11 | 240 | 0.0 | 0.0 | 0.00 | 0.00 | 0.00 | 68 | 1018.4 |
| 20260509201030 | 11 | 240 | 0.0 | 0.0 | 0.00 | 0.00 | 0.00 | 68 | 1018.2 |
| 20260509200530 | 11 | 240 | 0.0 | 0.0 | 0.00 | 0.00 | 0.00 | 68 | 1018.3 |
| 20260509200030 | 11 | 240 | 0.0 | 0.0 | 0.00 | 0.00 | 0.00 | 68 | 1018.2 |
| 20260509195530 | 11 | 244 | 0.0 | 0.0 | 0.00 | 0.00 | 0.00 | 67 | 1018.2 |
| 20260509195030 | 12 | 235 | 0.0 | 0.0 | 0.00 | 0.00 | 0.00 | 66 | 1018.2 |
| 20260509194530 | 12 | 235 | 0.0 | 0.0 | 0.00 | 0.00 | 0.00 | 66 | 1018.3 |
| 20260509193030 | 12 | 264 | 0.0 | 0.0 | 0.00 | 0.00 | 0.00 | 65 | 1018.2 |
| 20260509192030 | 13 | 265 | 0.0 | 0.0 | 0.00 | 0.00 | 0.00 | 64 | 1018.2 |
| 20260509191530 | 13 | 268 | 0.0 | 0.0 | 0.00 | 0.00 | 0.00 | 63 | 1018.3 |
| 20260509191028 | 13 | 268 | 0.0 | 0.0 | 0.00 | 0.00 | 0.00 | 62 | 1018.1 |
| 20260509190032 | 13 | 241 | 0.0 | 0.0 | 0.00 | 0.00 | 0.00 | 62 | 1017.5 |
| 20260509185528 | 13 | 253 | 0.0 | 0.0 | 0.00 | 0.00 | 0.00 | 62 | 1017.9 |
| 20260509184020 | 17 | 98 | 12.9 | 14.5 | 0.00 | 0.00 | 0.00 | 53 | 1017.4 |
| 20260509183514 | 17 | 98 | 12.9 | 14.5 | 0.00 | 0.00 | 0.00 | 53 | 1017.3 |
| 20260509183013 | 17 | 98 | 12.9 | 14.5 | 0.00 | 0.00 | 0.00 | 53 | 1017.3 |
| 20260509182515 | 17 | 98 | 12.9 | 14.5 | 0.00 | 0.00 | 0.00 | 53 | 1017.4 |
| 20260509182014 | 17 | 98 | 12.9 | 14.5 | 0.00 | 0.00 | 0.00 | 53 | 1017.4 |
| 20260509181514 | 17 | 98 | 12.9 | 14.5 | 0.00 | 0.00 | 0.00 | 53 | 1017.0 |
| 20260509181002 | 17 | 98 | 12.9 | 14.5 | 0.00 | 0.00 | 0.00 | 53 | 1017.1 |
| 20260509180503 | 17 | 98 | 12.9 | 14.5 | 0.00 | 0.00 | 0.00 | 53 | 1017.0 |
| 20260509180003 | 17 | 98 | 12.9 | 14.5 | 0.00 | 0.00 | 0.00 | 53 | 1016.8 |
| 20260509174956 | 17 | 98 | 12.9 | 14.5 | 0.00 | 0.00 | 0.00 | 53 | 1016.9 |
| 20260509174450 | 17 | 98 | 12.9 | 14.5 | 0.00 | 0.00 | 0.00 | 53 | 1017.1 |
| 20260509173950 | 16 | 264 | 0.0 | 0.0 | 0.00 | 0.00 | 0.00 | 53 | 1017.0 |
| 20260509173444 | 17 | 236 | 0.0 | 0.0 | 0.00 | 0.00 | 0.00 | 53 | 1016.8 |
| 20260509172946 | 17 | 256 | 0.0 | 0.0 | 0.00 | 0.00 | 0.00 | 52 | 1016.9 |
| 20260509172442 | 17 | 259 | 0.0 | 0.0 | 0.00 | 0.00 | 0.00 | 50 | 1016.6 |
| 20260509171939 | 17 | 216 | 0.0 | 0.0 | 0.00 | 0.00 | 0.00 | 51 | 1016.7 |
| 20260509171436 | 17 | 225 | 0.0 | 0.0 | 0.00 | 0.00 | 0.00 | 50 | 1016.7 |
| 20260509170932 | 18 | 200 | 0.0 | 0.0 | 0.00 | 0.00 | 0.00 | 48 | 1016.8 |
| 20260509170432 | 18 | 268 | 0.0 | 0.0 | 0.00 | 0.00 | 0.00 | 47 | 1016.6 |
| 20260509165432 | 19 | 200 | 0.0 | 0.0 | 0.00 | 0.00 | 0.00 | 46 | 1016.4 |
| 20260509164930 | 20 | 272 | 0.0 | 8.0 | 0.00 | 0.00 | 0.00 | 45 | 1016.5 |
| 20260509164431 | 20 | 286 | 0.0 | 8.0 | 0.00 | 0.00 | 0.00 | 43 | 1016.6 |
| 20260509163430 | 20 | 155 | 6.4 | 8.0 | 0.00 | 0.00 | 0.00 | 43 | 1016.7 |
| 20260509162930 | 20 | 155 | 6.4 | 8.0 | 0.00 | 0.00 | 0.00 | 43 | 1016.6 |
| 20260509162430 | 20 | 155 | 6.4 | 8.0 | 0.00 | 0.00 | 0.00 | 43 | 1016.3 |
| 20260509161930 | 20 | 155 | 6.4 | 8.0 | 0.00 | 0.00 | 0.00 | 43 | 1016.6 |
| 20260509161430 | 20 | 155 | 6.4 | 8.0 | 0.00 | 0.00 | 0.00 | 43 | 1016.6 |
| 20260509160930 | 20 | 155 | 6.4 | 8.0 | 0.00 | 0.00 | 0.00 | 43 | 1016.6 |
| 20260509160430 | 20 | 155 | 6.4 | 8.0 | 0.00 | 0.00 | 0.00 | 43 | 1016.6 |
| 20260509155430 | 20 | 155 | 6.4 | 8.0 | 0.00 | 0.00 | 0.00 | 43 | 1016.7 |
| 20260509154930 | 20 | 155 | 6.4 | 8.0 | 0.00 | 0.00 | 0.00 | 43 | 1016.8 |
| 20260509154430 | 20 | 155 | 6.4 | 8.0 | 0.00 | 0.00 | 0.00 | 43 | 1016.6 |
| 20260509153930 | 23 | 320 | 0.0 | 0.0 | 0.00 | 0.00 | 0.00 | 40 | 1016.5 |
| 20260509153430 | 25 | 321 | 0.0 | 0.0 | 0.00 | 0.00 | 0.00 | 37 | 1016.6 |
| 20260509152931 | 25 | 322 | 0.0 | 0.0 | 0.00 | 0.00 | 0.00 | 37 | 1017.0 |
| 20260509152430 | 24 | 288 | 0.0 | 0.0 | 0.00 | 0.00 | 0.00 | 37 | 1016.7 |
| 20260509151430 | 21 | 293 | 0.0 | 0.0 | 0.00 | 0.00 | 0.00 | 43 | 1017.0 |
| 20260509150930 | 20 | 310 | 0.0 | 0.0 | 0.00 | 0.00 | 0.00 | 45 | 1016.9 |
| 20260509145930 | 22 | 267 | 0.0 | 0.0 | 0.00 | 0.00 | 0.00 | 41 | 1016.8 |
| 20260509144930 | 23 | 165 | 0.0 | 0.0 | 0.00 | 0.00 | 0.00 | 39 | 1016.8 |
| 20260509143931 | 22 | 319 | 0.0 | 0.0 | 0.00 | 0.00 | 0.00 | 41 | 1016.8 |
| 20260509143430 | 24 | 319 | 0.0 | 0.0 | 0.00 | 0.00 | 0.00 | 39 | 1016.9 |
| 20260509142929 | 23 | 301 | 0.0 | 0.0 | 0.00 | 0.00 | 0.00 | 38 | 1016.8 |
| 20260509142432 | 23 | 246 | 0.0 | 0.0 | 0.00 | 0.00 | 0.00 | 40 | 1017.1 |
| 20260509141931 | 23 | 232 | 0.0 | 0.0 | 0.00 | 0.00 | 0.00 | 39 | 1016.9 |
| 20260509141430 | 23 | 232 | 0.0 | 0.0 | 0.00 | 0.00 | 0.00 | 40 | 1016.8 |
| 20260509140929 | 21 | 217 | 0.0 | 0.0 | 0.00 | 0.00 | 0.00 | 45 | 1017.0 |
| 20260509140430 | 21 | 294 | 0.0 | 0.0 | 0.00 | 0.00 | 0.00 | 42 | 1017.2 |
| 20260509135930 | 22 | 334 | 0.0 | 0.0 | 0.00 | 0.00 | 0.00 | 44 | 1016.9 |
| 20260509134931 | 21 | 244 | 0.0 | 9.7 | 0.00 | 0.00 | 0.00 | 43 | 1017.2 |
| 20260509134430 | 22 | 119 | 6.4 | 9.7 | 0.00 | 0.00 | 0.00 | 43 | 1017.1 |
| 20260509133430 | 22 | 119 | 6.4 | 9.7 | 0.00 | 0.00 | 0.00 | 43 | 1017.0 |
| 20260509132930 | 22 | 119 | 6.4 | 9.7 | 0.00 | 0.00 | 0.00 | 43 | 1017.2 |
| 20260509132430 | 22 | 119 | 6.4 | 9.7 | 0.00 | 0.00 | 0.00 | 43 | 1017.3 |
| 20260509131931 | 22 | 119 | 6.4 | 9.7 | 0.00 | 0.00 | 0.00 | 43 | 1017.4 |
| 20260509131430 | 22 | 119 | 6.4 | 9.7 | 0.00 | 0.00 | 0.00 | 43 | 1017.3 |
| 20260509130930 | 22 | 119 | 6.4 | 9.7 | 0.00 | 0.00 | 0.00 | 43 | 1017.2 |
| 20260509125930 | 22 | 119 | 6.4 | 9.7 | 0.00 | 0.00 | 0.00 | 43 | 1017.5 |
| 20260509125430 | 22 | 119 | 6.4 | 9.7 | 0.00 | 0.00 | 0.00 | 43 | 1017.2 |
| 20260509124430 | 23 | 251 | 3.2 | 6.4 | 0.00 | 0.00 | 0.00 | 39 | 1017.4 |
| 20260509123431 | 21 | 52 | 4.8 | 8.0 | 0.00 | 0.00 | 0.00 | 45 | 1017.6 |
| 20260509122929 | 21 | 52 | 4.8 | 8.0 | 0.00 | 0.00 | 0.00 | 45 | 1017.7 |
| 20260509122430 | 20 | 148 | 6.4 | 8.0 | 0.00 | 0.00 | 0.00 | 45 | 1017.4 |
| 20260509121926 | 20 | 148 | 6.4 | 8.0 | 0.00 | 0.00 | 0.00 | 45 | 1017.5 |
| 20260509121431 | 20 | 148 | 6.4 | 8.0 | 0.00 | 0.00 | 0.00 | 45 | 1017.4 |
| 20260509120926 | 20 | 148 | 6.4 | 8.0 | 0.00 | 0.00 | 0.00 | 45 | 1017.5 |
| 20260509120426 | 20 | 148 | 6.4 | 8.0 | 0.00 | 0.00 | 0.00 | 45 | 1017.5 |
| 20260509115926 | 20 | 148 | 6.4 | 8.0 | 0.00 | 0.00 | 0.00 | 45 | 1017.7 |
| 20260509115427 | 20 | 148 | 6.4 | 8.0 | 0.00 | 0.00 | 0.00 | 45 | 1017.8 |
| 20260509114416 | 21 | 236 | 0.0 | 0.0 | 0.00 | 0.00 | 0.00 | 47 | 1017.8 |
| 20260509112916 | 23 | 181 | 0.0 | 6.4 | 0.00 | 0.00 | 0.00 | 40 | 1017.9 |
| 20260509111912 | 20 | 34 | 4.8 | 6.4 | 0.00 | 0.00 | 0.00 | 46 | 1018.1 |
| 20260509111402 | 20 | 34 | 4.8 | 6.4 | 0.00 | 0.00 | 0.00 | 46 | 1018.1 |
| 20260509110902 | 20 | 34 | 4.8 | 6.4 | 0.00 | 0.00 | 0.00 | 46 | 1018.4 |
| 20260509110402 | 20 | 34 | 4.8 | 6.4 | 0.00 | 0.00 | 0.00 | 46 | 1018.4 |
| 20260509105403 | 20 | 34 | 4.8 | 6.4 | 0.00 | 0.00 | 0.00 | 46 | 1018.4 |
| 20260509104854 | 20 | 34 | 4.8 | 6.4 | 0.00 | 0.00 | 0.00 | 46 | 1018.5 |
| 20260509104354 | 20 | 34 | 4.8 | 6.4 | 0.00 | 0.00 | 0.00 | 46 | 1018.5 |
| 20260509103848 | 20 | 34 | 4.8 | 6.4 | 0.00 | 0.00 | 0.00 | 46 | 1018.6 |
| 20260509103342 | 20 | 34 | 4.8 | 6.4 | 0.00 | 0.00 | 0.00 | 46 | 1018.3 |
| 20260509102845 | 20 | 34 | 4.8 | 6.4 | 0.00 | 0.00 | 0.00 | 46 | 1018.4 |
| 20260509101840 | 18 | 9 | 3.2 | 4.8 | 0.00 | 0.00 | 0.00 | 49 | 1018.5 |
| 20260509100841 | 18 | 9 | 3.2 | 12.9 | 0.00 | 0.00 | 0.00 | 49 | 1018.6 |
| 20260509100340 | 18 | 9 | 3.2 | 14.5 | 0.00 | 0.00 | 0.00 | 49 | 1018.7 |
| 20260509095840 | 18 | 191 | 6.4 | 17.7 | 0.00 | 0.00 | 0.00 | 49 | 1018.6 |
| 20260509095340 | 18 | 84 | 8.0 | 17.7 | 0.00 | 0.00 | 0.00 | 49 | 1018.8 |
| 20260509094840 | 18 | 55 | 9.7 | 17.7 | 0.00 | 0.00 | 0.00 | 50 | 1018.6 |
| 20260509094340 | 20 | 86 | 3.2 | 16.1 | 0.00 | 0.00 | 0.00 | 46 | 1018.8 |
| 20260509093840 | 19 | 336 | 3.2 | 16.1 | 0.00 | 0.00 | 0.00 | 49 | 1018.6 |
| 20260509092840 | 19 | 7 | 4.8 | 12.9 | 0.00 | 0.00 | 0.00 | 47 | 1018.8 |
| 20260509092341 | 18 | 54 | 4.8 | 14.5 | 0.00 | 0.00 | 0.00 | 49 | 1018.7 |
| 20260509091840 | 17 | 112 | 9.7 | 14.5 | 0.00 | 0.00 | 0.00 | 53 | 1018.5 |
| 20260509091339 | 18 | 151 | 1.6 | 16.1 | 0.00 | 0.00 | 0.00 | 52 | 1018.7 |
| 20260509090340 | 18 | 74 | 9.7 | 12.9 | 0.00 | 0.00 | 0.00 | 51 | 1018.8 |
| 20260509085339 | 17 | 85 | 9.7 | 12.9 | 0.00 | 0.00 | 0.00 | 55 | 1019.0 |
| 20260509084840 | 18 | 118 | 8.0 | 14.5 | 0.00 | 0.00 | 0.00 | 54 | 1018.9 |
| 20260509084340 | 17 | 135 | 4.8 | 14.5 | 0.00 | 0.00 | 0.00 | 56 | 1018.9 |
| 20260509083840 | 17 | 57 | 3.2 | 11.3 | 0.00 | 0.00 | 0.00 | 56 | 1018.9 |
| 20260509082845 | 16 | 102 | 3.2 | 14.5 | 0.00 | 0.00 | 0.00 | 59 | 1018.9 |
| 20260509082340 | 17 | 67 | 3.2 | 9.7 | 0.00 | 0.00 | 0.00 | 56 | 1019.0 |
| 20260509081840 | 17 | 76 | 3.2 | 9.7 | 0.00 | 0.00 | 0.00 | 59 | 1019.0 |
| 20260509081340 | 18 | 8 | 6.4 | 9.7 | 0.00 | 0.00 | 0.00 | 57 | 1019.1 |
| 20260509080840 | 17 | 100 | 4.8 | 6.4 | 0.00 | 0.00 | 0.00 | 57 | 1018.8 |
| 20260509080339 | 16 | 138 | 3.2 | 9.7 | 0.00 | 0.00 | 0.00 | 61 | 1019.4 |
| 20260509075840 | 16 | 100 | 4.8 | 9.7 | 0.00 | 0.00 | 0.00 | 62 | 1019.1 |
| 20260509075339 | 16 | 76 | 3.2 | 9.7 | 0.00 | 0.00 | 0.00 | 62 | 1019.2 |
| 20260509074840 | 16 | 11 | 3.2 | 6.4 | 0.00 | 0.00 | 0.00 | 62 | 1019.4 |
| 20260509074340 | 15 | 105 | 3.2 | 9.7 | 0.00 | 0.00 | 0.00 | 64 | 1019.3 |
| 20260509073340 | 15 | 306 | 1.6 | 8.0 | 0.00 | 0.00 | 0.00 | 65 | 1019.1 |
| 20260509072840 | 15 | 97 | 6.4 | 8.0 | 0.00 | 0.00 | 0.00 | 66 | 1019.4 |
| 20260509072340 | 15 | 77 | 6.4 | 8.0 | 0.00 | 0.00 | 0.00 | 67 | 1019.2 |
| 20260509071840 | 15 | 105 | 6.4 | 12.9 | 0.00 | 0.00 | 0.00 | 66 | 1019.5 |
| 20260509071345 | 14 | 211 | 1.6 | 12.9 | 0.00 | 0.00 | 0.00 | 66 | 1019.3 |
| 20260509070340 | 13 | 123 | 4.8 | 12.9 | 0.00 | 0.00 | 0.00 | 71 | 1019.4 |
| 20260509065340 | 13 | 10 | 3.2 | 6.4 | 0.00 | 0.00 | 0.00 | 73 | 1019.5 |
| 20260509064840 | 12 | 301 | 1.6 | 6.4 | 0.00 | 0.00 | 0.00 | 74 | 1019.1 |
| 20260509064340 | 12 | 21 | 4.8 | 11.3 | 0.00 | 0.00 | 0.00 | 74 | 1019.3 |
| 20260509063841 | 12 | 43 | 1.6 | 11.3 | 0.00 | 0.00 | 0.00 | 76 | 1019.3 |
| 20260509063340 | 12 | 339 | 4.8 | 9.7 | 0.00 | 0.00 | 0.00 | 76 | 1019.2 |
| 20260509062839 | 12 | 4 | 0.0 | 9.7 | 0.00 | 0.00 | 0.00 | 75 | 1019.5 |
| 20260509062340 | 12 | 28 | 6.4 | 9.7 | 0.00 | 0.00 | 0.00 | 75 | 1019.3 |
| 20260509061840 | 12 | 342 | 3.2 | 9.7 | 0.00 | 0.00 | 0.00 | 76 | 1019.2 |
| 20260509061340 | 12 | 6 | 6.4 | 9.7 | 0.00 | 0.00 | 0.00 | 76 | 1019.2 |
| 20260509060840 | 12 | 66 | 4.8 | 8.0 | 0.00 | 0.00 | 0.00 | 76 | 1019.4 |
| 20260509055840 | 12 | 340 | 4.8 | 9.7 | 0.00 | 0.00 | 0.00 | 75 | 1019.0 |
| 20260509055340 | 12 | 18 | 4.8 | 8.0 | 0.00 | 0.00 | 0.00 | 74 | 1018.9 |
| 20260509054340 | 12 | 2 | 3.2 | 8.0 | 0.00 | 0.00 | 0.00 | 76 | 1018.9 |
| 20260509053840 | 12 | 353 | 4.8 | 6.4 | 0.00 | 0.00 | 0.00 | 76 | 1018.7 |
| 20260509053340 | 12 | 65 | 3.2 | 9.7 | 0.00 | 0.00 | 0.00 | 77 | 1018.9 |
| 20260509051840 | 11 | 2 | 6.4 | 11.3 | 0.00 | 0.00 | 0.00 | 80 | 1018.9 |
| 20260509051339 | 11 | 9 | 4.8 | 11.3 | 0.00 | 0.00 | 0.00 | 81 | 1018.7 |
| 20260509050840 | 11 | 20 | 4.8 | 11.3 | 0.00 | 0.00 | 0.00 | 81 | 1018.5 |
| 20260509050340 | 10 | 12 | 3.2 | 11.3 | 0.00 | 0.00 | 0.00 | 82 | 1018.6 |
| 20260509045840 | 10 | 39 | 3.2 | 9.7 | 0.00 | 0.00 | 0.00 | 82 | 1018.6 |
| 20260509045339 | 10 | 4 | 4.8 | 9.7 | 0.00 | 0.00 | 0.00 | 82 | 1018.2 |
| 20260509044840 | 10 | 32 | 3.2 | 9.7 | 0.00 | 0.00 | 0.00 | 83 | 1018.4 |
| 20260509044340 | 10 | 356 | 3.2 | 9.7 | 0.00 | 0.00 | 0.00 | 84 | 1018.3 |
| 20260509043839 | 10 | 36 | 3.2 | 9.7 | 0.00 | 0.00 | 0.00 | 84 | 1018.3 |
| 20260509043340 | 10 | 355 | 6.4 | 9.7 | 0.00 | 0.00 | 0.00 | 84 | 1018.5 |
| 20260509042840 | 10 | 32 | 1.6 | 8.0 | 0.00 | 0.00 | 0.00 | 84 | 1018.4 |
| 20260509042340 | 10 | 51 | 1.6 | 6.4 | 0.00 | 0.00 | 0.00 | 85 | 1018.2 |
| 20260509041840 | 9 | 34 | 3.2 | 6.4 | 0.00 | 0.00 | 0.00 | 85 | 1018.2 |
| 20260509040841 | 9 | 2 | 3.2 | 9.7 | 0.00 | 0.00 | 0.00 | 86 | 1018.2 |
| 20260509040340 | 9 | 350 | 3.2 | 9.7 | 0.00 | 0.00 | 0.00 | 86 | 1018.2 |
| 20260509035840 | 9 | 25 | 4.8 | 9.7 | 0.00 | 0.00 | 0.00 | 86 | 1018.4 |
| 20260509035341 | 9 | 31 | 3.2 | 9.7 | 0.00 | 0.00 | 0.00 | 86 | 1018.1 |
| 20260509034853 | 9 | 21 | 0.0 | 9.7 | 0.00 | 0.00 | 0.00 | 86 | 1017.8 |
| 20260509034340 | 9 | 0 | 3.2 | 9.7 | 0.00 | 0.00 | 0.00 | 86 | 1018.3 |
| 20260509033841 | 9 | 2 | 3.2 | 6.4 | 0.00 | 0.00 | 0.00 | 86 | 1018.1 |
| 20260509033340 | 9 | 26 | 4.8 | 6.4 | 0.00 | 0.00 | 0.00 | 86 | 1018.3 |
| 20260509032840 | 9 | 23 | 3.2 | 4.8 | 0.00 | 0.00 | 0.00 | 86 | 1018.2 |
| 20260509031339 | 9 | 34 | 1.6 | 6.4 | 0.00 | 0.00 | 0.00 | 86 | 1018.4 |
| 20260509030339 | 9 | 26 | 3.2 | 6.4 | 0.00 | 0.00 | 0.00 | 86 | 1018.3 |
| 20260509025840 | 9 | 13 | 1.6 | 4.8 | 0.00 | 0.00 | 0.00 | 86 | 1018.1 |
| 20260509025340 | 9 | 10 | 3.2 | 4.8 | 0.00 | 0.00 | 0.00 | 86 | 1018.2 |
| 20260509024840 | 9 | 19 | 1.6 | 4.8 | 0.00 | 0.00 | 0.00 | 86 | 1018.1 |
| 20260509024340 | 9 | 1 | 1.6 | 4.8 | 0.00 | 0.00 | 0.00 | 86 | 1017.9 |
| 20260509023340 | 9 | 48 | 1.6 | 4.8 | 0.00 | 0.00 | 0.00 | 86 | 1018.2 |
| 20260509022840 | 9 | 51 | 0.0 | 4.8 | 0.00 | 0.00 | 0.00 | 86 | 1018.2 |
| 20260509022340 | 9 | 51 | 1.6 | 4.8 | 0.00 | 0.00 | 0.00 | 86 | 1018.3 |
| 20260509021340 | 9 | 28 | 4.8 | 6.4 | 0.00 | 0.00 | 0.00 | 86 | 1017.8 |
| 20260509020340 | 9 | 32 | 0.0 | 6.4 | 0.00 | 0.00 | 0.00 | 86 | 1018.2 |
| 20260509015341 | 9 | 24 | 1.6 | 6.4 | 0.00 | 0.00 | 0.00 | 86 | 1018.1 |
| 20260509014840 | 9 | 28 | 6.4 | 6.4 | 0.00 | 0.00 | 0.00 | 86 | 1018.1 |
| 20260509014340 | 9 | 69 | 3.2 | 8.0 | 0.00 | 0.00 | 0.00 | 86 | 1018.2 |
| 20260509013840 | 9 | 27 | 3.2 | 9.7 | 0.00 | 0.00 | 0.00 | 85 | 1018.2 |
| 20260509013340 | 10 | 58 | 4.8 | 9.7 | 0.00 | 0.00 | 0.00 | 85 | 1017.8 |
| 20260509011839 | 10 | 35 | 3.2 | 8.0 | 0.00 | 0.00 | 0.00 | 85 | 1017.9 |
| 20260509010839 | 10 | 4 | 3.2 | 8.0 | 0.00 | 0.00 | 0.00 | 85 | 1018.1 |
| 20260509010340 | 10 | 333 | 3.2 | 8.0 | 0.00 | 0.00 | 0.00 | 85 | 1018.3 |
| 20260509005840 | 10 | 17 | 4.8 | 11.3 | 0.00 | 0.00 | 0.00 | 85 | 1018.1 |
| 20260509005340 | 10 | 283 | 1.6 | 11.3 | 0.00 | 0.00 | 0.00 | 85 | 1017.9 |
| 20260509004340 | 10 | 15 | 6.4 | 9.7 | 0.00 | 0.00 | 0.00 | 85 | 1018.1 |
| 20260509003841 | 10 | 18 | 3.2 | 9.7 | 0.00 | 0.00 | 0.00 | 85 | 1018.1 |
| 20260509003340 | 10 | 15 | 6.4 | 8.0 | 0.00 | 0.00 | 0.00 | 85 | 1017.9 |
| 20260509002340 | 10 | 2 | 6.4 | 11.3 | 0.00 | 0.00 | 0.00 | 85 | 1018.4 |
| 20260509001840 | 10 | 32 | 0.0 | 11.3 | 0.00 | 0.00 | 0.00 | 85 | 1018.1 |
| 20260509001340 | 10 | 22 | 6.4 | 8.0 | 0.00 | 0.00 | 0.00 | 85 | 1018.2 |
| 20260509000840 | 10 | 60 | 3.2 | 11.3 | 0.00 | 0.00 | 0.00 | 85 | 1018.4 |
| 20260509000340 | 10 | 358 | 6.4 | 11.3 | 0.00 | 0.00 | 0.00 | 85 | 1018.3 |
| 20260508235840 | 10 | 305 | 0.0 | 8.0 | 0.00 | 0.00 | 0.00 | 84 | 1018.2 |
| 20260508234840 | 10 | 9 | 6.4 | 6.4 | 0.00 | 0.00 | 0.00 | 84 | 1018.5 |
| 20260508234340 | 10 | 42 | 3.2 | 9.7 | 0.00 | 0.00 | 0.00 | 84 | 1018.4 |
| 20260508233840 | 10 | 9 | 3.2 | 9.7 | 0.00 | 0.00 | 0.00 | 84 | 1018.2 |
| 20260508233340 | 11 | 348 | 8.0 | 11.3 | 0.00 | 0.00 | 0.00 | 84 | 1018.4 |
| 20260508232840 | 11 | 9 | 4.8 | 11.3 | 0.00 | 0.00 | 0.00 | 84 | 1018.4 |
| 20260508232340 | 11 | 8 | 3.2 | 9.7 | 0.00 | 0.00 | 0.00 | 83 | 1018.3 |
| 20260508231839 | 11 | 324 | 3.2 | 9.7 | 0.00 | 0.00 | 0.00 | 83 | 1018.5 |
| 20260508231340 | 11 | 21 | 8.0 | 9.7 | 0.00 | 0.00 | 0.00 | 83 | 1018.4 |
| 20260508230840 | 11 | 24 | 3.2 | 14.5 | 0.00 | 0.00 | 0.00 | 82 | 1018.6 |
| 20260508225839 | 11 | 355 | 3.2 | 8.0 | 0.00 | 0.00 | 0.00 | 82 | 1018.6 |
| 20260508225340 | 11 | 355 | 4.8 | 8.0 | 0.00 | 0.00 | 0.00 | 82 | 1018.5 |